Orbital Elements at Epoch 2459000.5 (2020-May-31.0) TDB
Reference: JPL 27 (heliocentric ecliptic J2000)
Element | Value | Uncertainty (1-sigma) | Units |
e | .1312542710414998 | 3.3721e-08 | |
a | 2.319976582529402 | 8.1811e-09 | au |
q | 2.015469747356155 | 7.9855e-08 | au |
i | 6.124471303023595 | 4.3797e-06 | deg |
node | 303.9569576261515 | 3.4839e-05 | deg |
peri | 65.14266687341897 | 3.8836e-05 | deg |
M | 31.10730986870545 | 1.7772e-05 | deg |
tp | 2458888.972033619988 (2020-Feb-09.47203362) | 6.3587e-05 | TDB |
period | 1290.69559747422 3.53 | 6.8272e-06 1.869e-08 | d yr |
n | .2789193677459572 | 1.4754e-09 | deg/d |
Q | 2.624483417702649 | 9.2549e-09 | au |
|
| | Orbit Determination Parameters
Additional Information
|